Regional Weather Roundup
Issued by NWS Sioux Falls, SD

Home | Current Version | Previous Version | Text Only | Print | Product List | Glossary On
Versions: 1 2 3 4 5 6 7 8 9 10 11 12 13 14 15 16 17 18 19 20 21 22 23 24 25 26 27 28 29 30 31 32 33 34 35 36 37 38 39 40 41 42 43 44 45 46 47 48 49 50
000
ASUS43 KFSD 080010
RWRFSD

WEATHER ROUNDUP FOR SE SOUTH DAKOTA/SW MINNESOTA/NW IOWA
NATIONAL WEATHER SERVICE SIOUX FALLS SD
600 PM CST WED DEC 07 2016

NOTE: "FAIR" INDICATES FEW OR NO CLOUDS BELOW 12,000 FEET WITH NO
SIGNIFICANT WEATHER AND OR OBSTRUCTIONS TO VISIBILITY.


SDZ038>040-050-052>070-080100-
SOUTHEAST SOUTH DAKOTA

CITY           SKY/WX    TMP DP  RH WIND       PRES   REMARKS
BROOKINGS      FLURRIES   9   4  80 NW23G30   30.23R WCI -11
CHAMBERLAIN    CLOUDY    14   4  65 NW20G31   30.41R WCI  -4
6HR MIN TEMP:  13; 6HR MAX TEMP:  17;

HURON          CLOUDY    12   3  67 NW26G37   30.35R WCI  -8
6HR MIN TEMP:  12; 6HR MAX TEMP:  17;

MADISON        FAIR       9   7  92 NW23G33   30.26R WCI -12
MITCHELL       CLOUDY    15   5  64 NW24G33   30.38R WCI  -4
6HR MIN TEMP:  15; 6HR MAX TEMP:  20;

SIOUX FALLS    PTCLDY    15   6  67 W23G32    30.28R WCI  -3
6HR MIN TEMP:  14; 6HR MAX TEMP:  20;

WINNER         FAIR      12   1  61 NW20      30.41R WCI  -6
YANKTON        PTCLDY    16   3  57 W22G32    30.36R WCI  -2
$$

MNZ071-072-080-081-089-090-097-098-080100-
SOUTHWEST MINNESOTA

CITY           SKY/WX    TMP DP  RH WIND       PRES   REMARKS
FAIRMONT       CLOUDY    18   9  68 W20G30    30.20R WCI   2
JACKSON        MOCLDY    14   7  73 W25G35    30.20R WCI  -5
LUVERNE        CLEAR     14   5  67 NW22G29   30.26R WCI  -4
MARSHALL       NOT AVBL
MONTEVIDEO     CLOUDY    16   7  67 NW17G26   30.22R WCI   0
PIPESTONE      PTCLDY    12   5  73 NW25G31   30.22R WCI  -8
REDWOOD FALLS  CLOUDY    15   4  61 W25G33    30.20R WCI  -4
TRACY          MOCLDY    13   6  74 NW24G30   30.22R WCI  -6
WINDOM         CLOUDY    14   7  73 W29G37    30.19R WCI  -7
WORTHINGTON    FLURRIES  13   7  77 W30G36    30.20R WCI  -8
$$

IAZ001>003-012>014-020>022-031-032-NEZ013-014-SDZ071-080100-
NORTHWEST IOWA

CITY           SKY/WX    TMP DP  RH WIND       PRES   REMARKS
CHEROKEE       CLEAR     18   8  65 W16G24    30.29R WCI   3
DENISON        CLEAR     18   9  68 W12G18    30.30R WCI   5
ESTHERVILLE    CLEAR     16   9  74 NW18G25   30.20R WCI   0
LE MARS        CLOUDY    18   9  68 W18G29    30.33R WCI   2
ORANGE CITY    CLEAR     16   9  73 NW24G32   30.27R WCI  -3
SHELDON        MOCLDY    16   7  67 W17G29    30.25R WCI   0
SIOUX CITY     CLEAR     19   6  57 NW17      30.35R WCI   4
6HR MIN TEMP:  19; 6HR MAX TEMP:  24;

SPENCER        CLEAR     17   7  64 W31       30.24R WCI  -3
6HR MIN TEMP:  17; 6HR MAX TEMP:  23;

STORM LAKE     MOCLDY    16   9  73 W21G29    30.25S WCI  -2
$$

ABBREVIATIONS USED IN REMARKS
   TC - TEMPERATURE IN CELSIUS
  WCI - WIND CHILL INDEX
   HX - HEAT INDEX
  VSB - VISIBILITY





USA.gov is the U.S. government's official web portal to all federal, state and local government web resources and services.